Location: Springfield
(37.2150°N, 93.2980°W)
Time: 12:09:44
(UTC-06:00)

N. Korean satellite - Pass Details

Date: 27 October 2019
Orbit: 456 x 506 km, 97.2° (Epoch: 21 November)

Event Time Altitude Azimuth Distance (km) Brightness Sun altitude
Rises 06:16:18 0° 29° (NNE) 2,588 10.6 -15.7°
Reaches altitude 10° 06:18:50 10° 47° (NE) 1,707 9.9 -15.2°
Maximum altitude 06:21:32 19° 95° (E) 1,237 9.7 -14.7°
Drops below altitude 10° 06:24:14 10° 142° (SE) 1,709 10.0 -14.2°
Sets 06:26:46 0° 160° (SSE) 2,591 10.6 -13.7°
